Dewpoint
49 49 49 49 49 49 49 50 51 51 52 51 51 50 50 50 51 55 54 56 54 47 47 50 50 46 45 46 39 43 39 40 37 36 33 32 30 31 30 33 31 27 27 27 29 27 21 36 36 28 35 41 40 38
49 49 48 48 49 49 50 50 51 51 51 52 51 51 50 50 51 52 52 55 57 52 50 52 50 51 51 51 46 45 40 45 44 37 34 35 33 35 32 26 34 29 33 30 30 28 35 38 38 42 42 40 39 38
49 48 48 48 48 49 49 50 50 50 51 53 50 49 50 50 51 53 55 56 55 47 48 48 48 50 50 51 52 44 44 46 46 48 39 39 33 35 27 31 29 32 37 32 33 35 37 41 41 41 40 39 39 40
48 48 48 48 48 48 49 49 49 50 49 49 49 50 50 50 51 54 55 56 52 47 37 45 48 48 49 50 50 50 49 50 50 45 38 37 32 41 33 33 33 35 37 34 33 36 41 42 41 41 41 41 40 39
47 48 48 48 48 49 48 48 48 48 48 49 49 50 50 50 50 55 56 56 55 51 39 40 48 47 48 49 49 49 50 48 45 38 35 34 34 36 33 34 33 39 35 33 30 38 38 41 42 41 40 39 34 28
46 46 47 48 48 48 48 48 47 47 48 49 50 50 51 50 50 55 50 54 53 55 44 36 46 45 46 47 48 48 49 48 47 40 36 41 45 38 35 34 38 38 38 38 40 43 42 42 42 41 38 32 29 27
46 46 46 46 47 48 48 47 46 47 47 48 49 50 50 49 52 49 46 50 49 52 40 36 39 44 44 46 47 49 47 46 45 42 37 36 38 41 34 34 37 39 36 41 42 41 39 41 38 36 30 28 26 22
45 46 46 46 46 46 47 48 48 46 47 48 49 49 49 48 49 50 50 50 50 48 44 36 37 37 44 37 39 44 39 43 44 41 39 36 38 36 35 39 39 38 38 40 41 41 40 39 37 30 24 22 22 22
45 45 45 46 46 46 46 46 48 48 48 48 48 49 51 49 46 49 48 49 53 48 38 34 32 29 42 39 38 38 43 35 41 35 36 39 34 34 38 39 39 40 37 37 38 38 39 38 25 22 21 23 23 24
45 45 45 45 45 46 46 46 47 48 48 48 48 46 38 42 46 49 48 41 42 42 41 34 37 35 40 36 35 35 34 34 33 35 38 33 34 38 40 40 38 39 37 36 34 32 30 26 24 23 23 27 27 26
45 45 45 45 46 46 46 46 47 48 47 45 39 36 43 46 45 40 36 37 37 35 37 38 37 37 40 34 34 36 33 34 31 31 34 32 32 35 37 38 37 36 34 30 27 25 23 24 24 26 28 28 26 27
45 46 45 45 45 45 45 45 45 45 43 43 43 44 41 38 36 35 34 34 35 34 34 34 35 38 36 41 35 34 33 33 29 36 32 29 31 37 35 34 34 32 28 24 24 24 26 28 29 28 27 27 28 29
45 45 45 45 44 44 45 45 44 44 44 41 38 35 36 32 31 32 30 31 32 32 34 33 33 34 35 36 33 33 32 31 34 31 27 28 35 36 33 27 23 23 25 25 23 26 26 26 28 27 27 28 26 29
43 45 45 45 44 43 43 43 43 43 41 35 33 30 32 30 31 31 32 32 33 33 33 33 32 33 32 32 32 30 31 32 29 24 22 33 34 33 33 28 25 22 24 22 23 25 25 27 28 27 27 27 24 28
42 44 45 45 44 43 42 42 43 43 39 34 34 29 30 31 32 32 33 33 33 34 34 33 33 33 32 31 31 30 28 27 28 28 31 34 32 30 29 28 27 26 26 26 27 26 24 26 27 28 29 29 30 27
42 44 43 44 43 43 42 42 41 40 33 32 32 30 32 32 32 32 32 32 34 34 34 34 31 31 29 30 28 28 27 26 29 32 33 31 30 30 29 28 26 26 26 27 28 28 27 25 24 28 28 28 28 28
41 43 44 43 41 41 41 39 37 32 30 32 31 34 33 33 32 32 34 33 36 34 31 32 29 27 30 27 27 30 28 30 32 31 32 30 29 28 27 27 28 29 29 29 28 28 28 28 27 27 28 29 30 30
41 43 42 42 43 41 38 39 32 31 28 32 31 32 32 33 32 32 33 34 34 31 31 30 30 27 25 23 27 31 30 31 32 31 30 28 29 29 29 28 29 28 27 28 28 28 28 26 28 29 30 31 30 29
41 44 42 43 41 37 34 34 35 28 30 29 31 32 32 31 33 33 33 34 34 33 30 28 26 24 26 28 30 31 31 30 30 29 28 28 28 28 28 29 28 28 28 29 29 29 29 29 29 29 29 29 29 29
41 41 41 41 41 35 31 30 34 29 28 30 32 31 31 30 31 32 33 33 33 32 25 23 24 27 28 29 30 30 31 30 30 28 28 28 28 28 28 29 29 30 29 29 29 27 28 29 29 29 29 27 24 26
40 39 39 38 35 36 33 32 31 31 29 30 31 30 28 30 29 30 31 32 32 26 26 27 27 30 31 30 30 30 30 29 28 28 27 27 29 29 29 29 29 29 28 27 25 27 25 28 30 30 24 30 33 32
37 38 34 35 32 32 30 32 32 28 31 28 31 30 27 27 27 28 30 27 25 26 28 28 28 28 29 30 29 30 29 27 28 28 26 26 26 27 27 28 26 25 26 27 29 30 30 30 31 26 31 32 33 32
37 36 33 32 29 30 26 31 27 29 22 28 29 23 27 27 28 28 25 26 27 29 28 29 29 29 29 28 26 27 28 27 27 28 29 28 28 27 28 28 28 27 28 29 28 30 30 30 27 24 24 31 32 29
36 32 27 30 31 26 31 28 30 29 28 25 26 19 25 26 23 21 18 21 27 28 29 30 29 27 28 28 28 27 27 28 27 26 27 26 26 26 26 25 26 26 28 28 28 28 28 29 29 28 31 30 24 24
29 27 28 25 28 25 24 25 25 21 18 23 19 16 19 21 16 15 16 26 26 26 27 27 27 27 26 24 25 25 24 23 22 22 23 22 21 21 22 24 24 25 23 23 23 24 23 26 28 29 27 25 25 25
24 27 25 24 21 25 25 22 19 17 18 18 21 23 20 17 13 12 23 24 25 24 25 25 24 23 22 23 21 21 23 23 20 19 20 22 22 18 17 16 15 15 18 20 20 19 19 20 22 24 26 26 26 27
23 24 27 27 29 27 24 25 26 23 21 17 18 20 18 9 7 20 23 23 24 25 26 25 22 21 21 20 21 23 20 18 16 18 20 24 20 18 16 14 13 16 17 18 16 16 17 19 19 20 21 24 26 25
25 24 19 25 27 27 24 23 23 22 22 25 23 17 12 12 17 21 22 23 23 25 24 22 21 22 20 22 23 15 12 11 12 12 15 20 16 11 11 12 13 14 11 13 14 15 16 17 18 19 20 21 23 22
26 28 25 21 21 23 21 20 21 25 28 25 19 17 20 18 19 21 21 22 23 21 17 17 13 14 13 14 15 16 7 4 4 0 -4 -3 3 5 10 10 9 8 9 10 11 13 14 15 18 18 19 20 19 14
24 28 21 18 16 19 26 28 28 28 26 26 23 20 18 17 16 18 19 16 14 13 16 15 15 9 3 2 3 4 12 7 1 1 -2 -4 5 9 7 7 7 6 7 8 6 5 10 12 16 17 18 13 14 10
26 27 23 23 24 26 27 27 27 27 28 27 27 21 15 12 12 13 13 16 15 5 6 5 5 3 1 1 3 1 0 -0 2 8 5 1 3 1 -2 4 4 5 7 4 1 2 3 9 12 12 10 8 7 5
25 23 23 20 23 26 26 24 24 24 22 22 21 19 13 9 4 7 4 10 10 3 3 1 -1 1 0 5 1 -1 10 2 -2 -2 3 5 2 1 1 0 2 3 5 -7 -0 2 4 7 7 6 5 3 1 0
21 20 18 14 15 15 19 14 12 11 12 12 15 14 9 6 1 5 9 7 3 -1 -2 -2 -2 -1 6 1 -3 -0 -2 -4 -1 9 6 9 4 0 -3 1 5 5 -1 -4 -1 3 3 2 0 -0 -1 -3 -4 -5
Lifted_Index
4 3 3 3 3 4 4 4 3 2 2 2 2 2 2 1 0 0 1 1 0 1 1 1 1 1 2 2 2 3 3 3 4 5 5 5 5 5 5 5 5 5 5 5 5 4 4 4 4 4 3 3 3 3
3 3 3 3 3 4 4 4 3 2 2 2 2 2 2 1 0 -0 1 1 0 1 1 2 2 2 2 2 2 2 3 3 3 4 5 5 5 5 5 5 5 5 5 4 4 4 4 4 4 3 3 3 3 3
3 3 2 2 3 3 3 3 3 2 2 2 2 2 2 1 -0 -1 -0 0 0 1 2 2 2 2 2 2 2 2 2 2 2 3 4 5 6 6 5 5 5 4 4 4 4 3 3 3 3 3 3 3 4 4
2 2 2 2 3 3 3 3 3 3 2 2 2 2 1 0 -1 -1 -1 -0 0 2 2 2 2 2 2 2 1 2 2 2 2 2 3 5 5 5 5 5 4 4 3 3 3 3 2 2 2 2 3 3 4 5
2 2 3 3 3 3 3 3 3 3 2 2 2 2 1 0 -1 -1 -1 -0 -0 1 2 2 2 2 3 2 1 1 1 2 2 2 3 4 4 4 5 5 4 3 2 3 3 3 2 2 2 2 3 4 5 6
3 3 3 3 3 3 3 3 3 3 3 2 2 2 2 1 -0 -1 -0 0 -0 1 2 3 3 3 3 2 1 1 1 1 2 3 3 4 3 4 4 4 4 3 3 3 3 3 2 2 2 3 4 5 7 8
5 4 3 3 3 3 3 3 3 3 3 2 2 2 2 1 1 0 1 1 0 1 3 4 4 3 3 2 1 1 1 1 2 3 4 4 3 4 4 4 4 3 3 3 3 3 3 3 3 5 6 7 8 9
8 7 5 4 4 3 3 3 3 3 3 3 2 2 2 2 1 1 1 1 1 2 3 4 4 4 3 2 2 2 2 2 3 3 4 4 4 4 4 4 3 3 3 3 3 3 3 4 5 6 7 8 9 10
9 9 8 7 6 5 4 3 3 3 3 3 3 3 3 3 2 2 2 2 2 2 3 4 4 4 3 3 3 3 3 3 4 4 5 5 5 5 4 3 3 3 3 3 3 3 4 5 6 7 8 9 10 10
10 9 9 9 8 7 5 4 4 3 3 3 3 3 3 3 3 2 3 3 3 3 4 4 3 3 3 3 3 3 3 4 4 4 5 5 5 5 4 3 3 3 3 3 3 4 5 6 7 8 9 10 11 11
10 10 9 9 8 7 6 6 5 4 3 3 3 3 3 3 3 3 3 3 3 4 4 4 3 3 3 3 2 3 3 3 4 4 4 4 5 5 4 4 4 4 4 4 5 6 7 8 8 9 10 11 11 11
9 9 9 9 8 7 7 6 5 4 4 4 3 3 3 2 2 2 3 3 3 4 4 4 4 3 3 3 3 3 3 3 3 4 4 4 4 5 5 5 5 5 5 6 7 8 8 9 9 10 11 11 11 11
9 9 9 9 8 8 7 7 6 5 5 4 3 3 2 2 2 2 3 3 4 4 5 4 4 4 3 3 3 3 3 3 3 3 3 4 5 6 6 6 7 7 7 7 8 8 9 10 10 11 11 11 11 11
8 8 8 8 8 8 8 7 7 6 5 4 3 3 3 3 3 3 4 4 5 5 5 5 4 4 4 3 3 3 3 3 3 3 4 5 6 6 7 7 8 8 8 8 8 9 10 10 11 11 11 11 10 10
7 7 7 7 8 8 7 7 7 7 6 4 4 3 3 4 4 4 5 5 6 6 6 5 5 4 3 3 3 3 3 3 3 4 5 6 6 7 7 7 8 8 8 8 9 9 10 10 10 10 10 9 9 9
6 6 6 6 7 7 7 7 7 6 6 5 4 4 4 5 5 5 5 6 6 6 6 5 4 4 4 3 3 3 3 4 5 6 6 7 7 6 7 7 7 8 8 9 9 10 10 10 9 9 9 8 8 7
6 6 6 6 6 6 6 6 5 5 5 5 4 4 5 5 5 5 6 6 6 6 6 5 4 4 4 4 4 4 5 5 6 6 7 7 7 7 7 7 7 8 9 9 9 9 9 9 8 8 7 7 6 6
6 6 6 6 6 5 5 5 5 5 4 4 4 4 5 5 5 5 6 6 6 6 6 5 5 4 4 4 5 5 6 6 7 7 7 7 7 7 7 8 8 8 9 9 8 8 8 7 7 6 6 5 5 4
6 6 6 6 5 5 5 5 5 4 4 4 4 4 4 5 5 5 6 6 6 5 5 5 5 4 4 5 5 6 6 6 7 7 7 7 7 7 7 7 7 8 8 7 7 7 6 6 5 5 4 4 4 4
7 7 6 6 5 5 5 5 4 4 4 4 4 4 4 4 5 5 5 5 5 5 4 4 4 4 4 5 5 5 6 6 6 7 7 7 7 7 7 6 6 6 6 6 5 5 5 5 4 4 4 4 4 4
7 7 7 6 5 5 5 5 4 4 4 4 4 3 3 4 4 4 4 4 4 4 3 3 3 3 4 4 5 5 5 6 6 6 6 6 6 6 6 5 5 5 4 4 4 4 4 4 4 4 5 5 5 5
7 7 7 6 5 4 4 4 4 4 3 3 3 3 3 3 3 3 3 3 3 3 3 3 3 3 3 4 4 5 5 5 5 5 5 5 5 5 5 4 4 4 4 4 4 4 4 4 5 5 6 6 6 6
7 6 6 5 4 4 4 4 3 3 2 2 2 2 2 2 3 3 3 3 3 3 3 3 3 4 4 4 5 5 5 5 5 5 5 5 5 5 5 5 5 5 5 5 5 5 5 5 5 6 6 7 7 7
5 5 4 4 3 3 3 3 2 2 1 1 1 1 2 2 2 3 3 3 4 4 4 4 4 4 4 4 5 5 5 5 4 5 5 5 5 5 6 6 6 6 7 7 7 7 7 7 7 7 7 7 8 8
3 3 2 2 2 2 2 2 1 1 1 1 1 1 2 2 2 3 3 3 4 4 4 5 5 5 4 4 4 4 4 5 5 5 5 6 6 6 6 7 7 8 8 8 8 8 8 8 8 8 8 8 8 8
2 1 1 1 2 2 1 1 1 1 1 1 1 2 2 2 3 3 3 4 4 4 5 5 5 5 5 4 4 5 5 6 6 6 7 7 7 7 8 8 8 9 10 10 10 9 9 9 9 9 9 9 8 8
2 2 2 2 2 2 2 2 1 1 1 1 2 2 2 3 3 3 4 4 5 5 6 6 6 6 5 6 6 6 7 7 8 8 8 9 9 9 10 10 10 11 12 12 12 11 11 11 10 10 9 9 9 9
3 3 2 2 3 3 2 2 2 2 2 2 3 3 3 3 3 4 4 5 5 6 6 6 6 7 7 7 8 8 8 9 9 9 9 10 11 11 12 12 13 13 14 14 14 13 13 13 12 11 11 10 10 10
3 3 3 3 3 3 3 3 3 3 3 3 3 3 4 4 4 5 5 6 6 6 6 6 7 8 8 9 9 10 10 10 10 10 10 10 11 12 13 14 14 15 15 15 14 14 14 14 13 12 12 11 10 10
4 4 4 4 4 4 4 4 4 4 4 4 4 4 4 4 5 6 7 7 6 6 7 7 8 9 9 9 10 10 11 12 12 12 12 12 13 14 15 15 15 16 16 15 15 15 15 14 14 13 12 12 11 10
4 4 4 4 4 4 5 5 5 5 5 5 5 5 5 5 6 7 8 8 8 8 8 9 9 10 10 11 11 11 12 13 14 15 15 15 15 16 16 16 16 16 16 16 16 16 15 15 14 13 13 12 11 10
4 4 4 4 4 5 5 5 5 5 5 6 6 6 6 6 7 8 10 10 10 10 10 10 11 11 12 13 13 13 14 15 16 16 16 16 16 16 17 17 17 17 17 16 16 16 16 15 14 14 13 12 11 10
4 4 4 5 5 5 6 6 6 5 6 6 6 7 7 7 7 8 11 12 11 11 11 12 12 13 13 14 14 15 15 16 16 17 17 17 17 17 17 17 17 17 17 16 16 17 16 15 15 14 13 12 11 11